• In Netherlands
  • List of Countries
  • For 7 days
  • Water Temperature
  • Satellite Maps
  • Weather Map
  • Weather Widgets
  • user-avatar
    Login

    Hourly Weather Barisal

    Today, 30 April, Sunday

    Time Temperature Precipitation Wind Pressure Humidity
    00:00 +29°C° 0 mm 3 mps 756 mmHg 87%
    01:00 +29°C° 0 mm 4 mps 755 mmHg 86%
    02:00 +29°C° 0 mm 4 mps 755 mmHg 84%
    03:00 +29°C° 0 mm 4 mps 755 mmHg 82%
    04:00 +29°C° 0 mm 4 mps 755 mmHg 80%
    05:00 +30°C° 0 mm 4 mps 755 mmHg 77%
    06:00 +30°C° 0 mm 4 mps 756 mmHg 75%
    07:00 +32°C° 0 mm 4 mps 756 mmHg 71%
    08:00 +33°C° 0 mm 4 mps 756 mmHg 67%
    09:00 +33°C° 0 mm 4 mps 757 mmHg 63%
    10:00 +35°C° 0 mm 5 mps 757 mmHg 56%
    11:00 +37°C° 0 mm 5 mps 756 mmHg 48%
    12:00 +40°C° 0 mm 5 mps 756 mmHg 40%
    13:00 +40°C° 0 mm 6 mps 756 mmHg 41%
    14:00 +40°C° 0 mm 6 mps 755 mmHg 41%
    15:00 +40°C° 0 mm 6 mps 755 mmHg 41%
    16:00 +38°C° 0 mm 6 mps 754 mmHg 48%
    17:00 +35°C° 0 mm 6 mps 754 mmHg 56%
    18:00 +34°C° 0 mm 6 mps 754 mmHg 63%
    19:00 +33°C° 0 mm 6 mps 754 mmHg 69%
    20:00 +32°C° 0 mm 6 mps 755 mmHg 75%
    21:00 +30°C° 0 mm 6 mps 755 mmHg 80%
    22:00 +30°C° 0 mm 5 mps 755 mmHg 81%
    23:00 +30°C° 0 mm 4 mps 756 mmHg 82%

    Tomorrow, 1 May, Monday

    Time Temperature Precipitation Wind Pressure Humidity
    00:00 +30°C° 0 mm 3 mps 756 mmHg 83%
    01:00 +29°C° 0 mm 3 mps 756 mmHg 84%
    02:00 +29°C° 0 mm 3 mps 755 mmHg 85%
    03:00 +29°C° 0 mm 3 mps 755 mmHg 85%
    04:00 +29°C° 0 mm 3 mps 755 mmHg 84%
    05:00 +29°C° 0 mm 4 mps 756 mmHg 83%
    06:00 +30°C° 0 mm 5 mps 756 mmHg 82%
    07:00 +30°C° 0 mm 5 mps 757 mmHg 79%
    08:00 +32°C° 0 mm 5 mps 757 mmHg 76%
    09:00 +33°C° 0 mm 5 mps 758 mmHg 73%
    10:00 +34°C° 0 mm 6 mps 757 mmHg 66%
    11:00 +36°C° 0 mm 6 mps 757 mmHg 60%
    12:00 +38°C° 0 mm 6 mps 757 mmHg 53%
    13:00 +39°C° 0.2 mm 6 mps 756 mmHg 50%
    14:00 +39°C° 0.2 mm 6 mps 755 mmHg 48%
    15:00 +40°C° 0.2 mm 6 mps 755 mmHg 45%
    16:00 +38°C° 0.1 mm 7 mps 754 mmHg 52%
    17:00 +35°C° 0.1 mm 7 mps 754 mmHg 60%
    18:00 +33°C° 0.1 mm 7 mps 753 mmHg 67%
    19:00 +33°C° 1.5 mm 6 mps 754 mmHg 72%
    20:00 +32°C° 1.5 mm 4 mps 755 mmHg 76%
    21:00 +30°C° 1.5 mm 3 mps 756 mmHg 81%
    22:00 +30°C° 0.7 mm 3 mps 756 mmHg 81%
    23:00 +29°C° 0.7 mm 3 mps 756 mmHg 82%

    Day after tomorrow, 2 May, Tuesday

    Time Temperature Precipitation Wind Pressure Humidity
    00:00 +29°C° 0.7 mm 3 mps 756 mmHg 83%
    01:00 +29°C° 0 mm 4 mps 756 mmHg 85%
    02:00 +29°C° 0 mm 4 mps 756 mmHg 87%
    03:00 +28°C° 0 mm 5 mps 755 mmHg 89%
    04:00 +29°C° 0 mm 5 mps 756 mmHg 89%
    05:00 +29°C° 0 mm 4 mps 756 mmHg 90%
    06:00 +29°C° 0 mm 4 mps 756 mmHg 90%
    07:00 +32°C° 0 mm 4 mps 757 mmHg 81%
    08:00 +33°C° 0 mm 5 mps 757 mmHg 71%
    09:00 +35°C° 0 mm 5 mps 758 mmHg 61%
    10:00 +37°C° 0 mm 5 mps 757 mmHg 54%
    11:00 +40°C° 0 mm 5 mps 757 mmHg 47%
    12:00 +41°C° 0 mm 5 mps 757 mmHg 40%
    13:00 +41°C° 0 mm 5 mps 756 mmHg 40%
    14:00 +41°C° 0 mm 6 mps 755 mmHg 39%
    15:00 +41°C° 0 mm 6 mps 754 mmHg 39%
    16:00 +39°C° 0 mm 6 mps 754 mmHg 46%
    17:00 +38°C° 0 mm 6 mps 754 mmHg 53%
    18:00 +35°C° 0 mm 7 mps 754 mmHg 59%
    19:00 +33°C° 0 mm 7 mps 754 mmHg 67%
    20:00 +32°C° 0 mm 7 mps 755 mmHg 74%
    21:00 +30°C° 0 mm 6 mps 755 mmHg 81%
    22:00 +30°C° 0 mm 6 mps 755 mmHg 82%
    23:00 +29°C° 0 mm 5 mps 755 mmHg 84%

    3 May, Wednesday

    Time Temperature Precipitation Wind Pressure Humidity
    00:00 +29°C° 0 mm 4 mps 755 mmHg 85%
    01:00 +29°C° 0 mm 4 mps 755 mmHg 85%
    02:00 +29°C° 0 mm 4 mps 755 mmHg 85%
    03:00 +29°C° 0 mm 4 mps 755 mmHg 84%
    04:00 +29°C° 0 mm 4 mps 755 mmHg 84%
    05:00 +29°C° 0 mm 4 mps 755 mmHg 83%
    06:00 +30°C° 0 mm 4 mps 755 mmHg 83%
    07:00 +32°C° 0 mm 5 mps 756 mmHg 75%
    08:00 +34°C° 0 mm 5 mps 756 mmHg 68%
    09:00 +36°C° 0 mm 6 mps 757 mmHg 60%
    10:00 +38°C° 0 mm 6 mps 756 mmHg 54%
    11:00 +40°C° 0 mm 6 mps 756 mmHg 49%
    12:00 +41°C° 0 mm 7 mps 756 mmHg 43%
    13:00 +41°C° 0.1 mm 6 mps 755 mmHg 42%
    14:00 +41°C° 0.1 mm 6 mps 754 mmHg 41%
    15:00 +42°C° 0.1 mm 6 mps 753 mmHg 39%
    16:00 +40°C° 0 mm 6 mps 753 mmHg 47%
    17:00 +38°C° 0 mm 7 mps 753 mmHg 54%
    18:00 +35°C° 0 mm 7 mps 753 mmHg 61%
    19:00 +34°C° 0 mm 6 mps 754 mmHg 68%
    20:00 +32°C° 0 mm 6 mps 754 mmHg 75%
    21:00 +30°C° 0 mm 5 mps 755 mmHg 81%
    22:00 +30°C° 0 mm 5 mps 755 mmHg 83%
    23:00 +30°C° 0 mm 4 mps 755 mmHg 85%

    4 May, Thursday

    Time Temperature Precipitation Wind Pressure Humidity
    00:00 +29°C° 0 mm 4 mps 755 mmHg 87%
    01:00 +29°C° 0 mm 4 mps 754 mmHg 87%
    02:00 +29°C° 0 mm 3 mps 754 mmHg 88%
    03:00 +29°C° 0 mm 3 mps 754 mmHg 88%
    04:00 +29°C° 0 mm 3 mps 755 mmHg 88%
    05:00 +29°C° 0 mm 3 mps 755 mmHg 89%
    06:00 +29°C° 0 mm 4 mps 755 mmHg 89%
    07:00 +32°C° 0 mm 4 mps 755 mmHg 80%
    08:00 +33°C° 0 mm 5 mps 756 mmHg 71%
    09:00 +35°C° 0 mm 6 mps 756 mmHg 61%
    10:00 +38°C° 0 mm 6 mps 756 mmHg 54%
    11:00 +40°C° 0 mm 7 mps 756 mmHg 47%
    12:00 +41°C° 0 mm 7 mps 755 mmHg 40%
    13:00 +41°C° 0 mm 7 mps 754 mmHg 40%
    14:00 +41°C° 0 mm 7 mps 754 mmHg 40%
    15:00 +41°C° 0 mm 7 mps 753 mmHg 39%
    16:00 +39°C° 0 mm 7 mps 753 mmHg 47%
    17:00 +36°C° 0 mm 7 mps 753 mmHg 56%
    18:00 +34°C° 0 mm 7 mps 753 mmHg 64%
    19:00 +33°C° 0 mm 7 mps 753 mmHg 70%
    20:00 +32°C° 0 mm 7 mps 753 mmHg 76%
    21:00 +30°C° 0 mm 7 mps 754 mmHg 83%
    22:00 +30°C° 0 mm 7 mps 754 mmHg 83%
    23:00 +30°C° 0 mm 6 mps 754 mmHg 83%

    5 May, Friday

    Time Temperature Precipitation Wind Pressure Humidity
    00:00 +30°C° 0 mm 6 mps 755 mmHg 83%
    01:00 +30°C° 0 mm 4 mps 754 mmHg 82%
    02:00 +30°C° 0 mm 3 mps 754 mmHg 82%
    03:00 +30°C° 0 mm 2 mps 754 mmHg 81%
    04:00 +30°C° 0 mm 3 mps 754 mmHg 83%
    05:00 +30°C° 0 mm 4 mps 755 mmHg 85%
    06:00 +29°C° 0 mm 5 mps 755 mmHg 86%
    07:00 +32°C° 0 mm 5 mps 755 mmHg 78%
    08:00 +34°C° 0 mm 6 mps 756 mmHg 69%
    09:00 +36°C° 0 mm 7 mps 756 mmHg 60%
    10:00 +38°C° 0 mm 8 mps 756 mmHg 55%
    11:00 +39°C° 0 mm 8 mps 755 mmHg 49%
    12:00 +41°C° 0 mm 8 mps 755 mmHg 43%
    13:00 +41°C° 0 mm 8 mps 754 mmHg 43%
    14:00 +40°C° 0 mm 8 mps 753 mmHg 43%
    15:00 +40°C° 0 mm 8 mps 753 mmHg 42%
    16:00 +39°C° 0 mm 8 mps 753 mmHg 49%
    17:00 +36°C° 0 mm 7 mps 753 mmHg 55%
    18:00 +34°C° 0 mm 7 mps 753 mmHg 61%
    19:00 +33°C° 0 mm 7 mps 753 mmHg 68%
    20:00 +32°C° 0 mm 7 mps 754 mmHg 74%
    21:00 +30°C° 0 mm 6 mps 754 mmHg 80%
    22:00 +30°C° 0 mm 6 mps 754 mmHg 81%
    23:00 +30°C° 0 mm 6 mps 754 mmHg 82%
    Show more